Powrót do katalogu

FENGYUN 1C DEB

AktywnySSO
NORAD 30300·DEBRIS·🇨🇳 China

Wystrzelony May 10, 1999 z Taiyuan Satellite Launch Center

Loading…

Następne Przeloty (najbliższe 24 godziny)

TLE

ŚwieżeSource: Space-Track

Epoka: Sep 11, 2026, 04:57 UTC

1 30300U 99025ZM  26254.20637726  .00003219  00000-0  12454-2 0  9996
2 30300  99.0318 338.0374 0071896 226.5548 162.5432 14.29402757  8449

Śledź FENGYUN 1C DEB w czasie rzeczywistym z AllMySat

Download on the App Store